Chico, CA

8:50 AM PST on November 18, 2019 (GMT -0800)
Chico Municipal

Weather History for KCIC - October, 2019

Change the Weather History Date:

Monday, October 21, 2019

  Actual Average (WUND) Record (WUND)
Temperature  
Mean Temperature 68 °F -  
Max Temperature 86 °F - - (-1)
Min Temperature 50 °F - - (-1)
Cooling Degree Days 3    
Growing Degree Days 18 (Base 50)    
Moisture  
Dew Point 39 °F    
Average Humidity 45    
Maximum Humidity 67    
Minimum Humidity 16    
Precipitation  
Precipitation 0.00 in - - ()
Sea Level Pressure  
Sea Level Pressure 30.16 in    
Wind  
Wind Speed 4 mph (NNW)    
Max Wind Speed 20 mph    
Max Gust Speed 28 mph    
Visibility 10 miles    
Events      
Averages and records for this station are not official NWS values.
T = Trace of Precipitation, MM = Missing Value Source: NWS Daily Summary

Daily Weather History Graph

Daily Weather History Graph

Search for Another Location

Airport or City:

Astronomy

Oct. 21, 2019 Rise Set
Actual Time 7:23 AM PDT 6:19 PM PDT
Civil Twilight 6:56 AM PDT 6:46 PM PDT
Nautical Twilight 6:25 AM PDT 7:18 PM PDT
Astronomical Twilight 5:53 AM PDT 7:49 PM PDT
Moon No Moon Rise 2:45 PM PDT (10/21)
Length of Visible Light 11h 50m
Length of Day
10h 55m
Waning Gibbous, 47% of the Moon is Illuminated
Oct 21
Waning Gibbous
Oct 27
New
Nov 4
First Quarter
Nov 12
Full
Nov 19
Last Quarter

Hourly Weather History & Observations

Time (PDT) Temp. Dew Point Humidity Pressure Visibility Wind Dir Wind Speed Gust Speed Precip Events Conditions
12:15 AM 57.2 °F 41.0 °F 55% 30.12 in 10.0 mi NW 4.6 mph - N/A   Clear
12:35 AM 59.0 °F 41.0 °F 51% 30.12 in 10.0 mi North 3.5 mph - N/A   Clear
12:55 AM 57.2 °F 41.0 °F 55% 30.13 in 10.0 mi Calm Calm - N/A   Clear
1:15 AM 55.4 °F 39.2 °F 54% 30.13 in 10.0 mi Calm Calm - N/A   Clear
1:35 AM 55.4 °F 41.0 °F 58% 30.13 in 10.0 mi Calm Calm - N/A   Clear
1:55 AM 55.4 °F 41.0 °F 58% 30.13 in 10.0 mi Calm Calm - N/A   Clear
2:15 AM 53.6 °F 39.2 °F 58% 30.13 in 10.0 mi Calm Calm - N/A   Clear
2:35 AM 55.4 °F 41.0 °F 58% 30.14 in 10.0 mi Calm Calm - N/A   Clear
2:55 AM 55.4 °F 41.0 °F 58% 30.14 in 10.0 mi Calm Calm - N/A   Clear
3:15 AM 55.4 °F 41.0 °F 58% 30.14 in 10.0 mi Calm Calm - N/A   Clear
3:35 AM 53.6 °F 39.2 °F 58% 30.13 in 10.0 mi Calm Calm - N/A   Clear
3:55 AM 53.6 °F 41.0 °F 62% 30.13 in 10.0 mi Calm Calm - N/A   Clear
4:15 AM 53.6 °F 41.0 °F 62% 30.14 in 10.0 mi NNW 3.5 mph - N/A   Clear
4:35 AM 51.8 °F 41.0 °F 67% 30.14 in 10.0 mi North 5.8 mph - N/A   Clear
4:55 AM 55.4 °F 39.2 °F 54% 30.14 in 10.0 mi North 3.5 mph - N/A   Clear
5:15 AM 50.0 °F 39.2 °F 66% 30.14 in 10.0 mi Calm Calm - N/A   Clear
5:35 AM 50.0 °F 39.2 °F 66% 30.15 in 10.0 mi Calm Calm - N/A   Clear
5:55 AM 50.0 °F 39.2 °F 66% 30.15 in 10.0 mi Calm Calm - N/A   Clear
6:15 AM 50.0 °F 39.2 °F 66% 30.16 in 10.0 mi NNW 6.9 mph - N/A   Clear
6:47 AM 50.0 °F 39.2 °F 66% 30.16 in 10.0 mi NNW 5.8 mph - N/A   Partly Cloudy
7:50 AM 53.6 °F 41.0 °F 62% 30.18 in 40.0 mi North 6.9 mph - N/A   Scattered Clouds
8:51 AM 57.2 °F 41.0 °F 55% 30.20 in 40.0 mi NNW 6.9 mph - N/A   Partly Cloudy
9:47 AM 62.6 °F 41.0 °F 45% 30.21 in 40.0 mi Variable 5.8 mph - N/A   Partly Cloudy
11:49 AM 75.2 °F 39.2 °F 27% 30.19 in 40.0 mi WNW 12.7 mph - N/A   Partly Cloudy
12:48 PM 82.4 °F 37.4 °F 20% 30.18 in 40.0 mi NW 15.0 mph - N/A   Partly Cloudy
1:48 PM 84.2 °F 33.8 °F 16% 30.16 in 40.0 mi WNW 17.3 mph - N/A   Partly Cloudy
2:54 PM 86.0 °F 35.6 °F 17% 30.14 in 40.0 mi NW 18.4 mph 27.6 mph N/A   Partly Cloudy
3:48 PM 84.2 °F 35.6 °F 18% 30.14 in 40.0 mi NW 19.6 mph - N/A   Partly Cloudy
4:47 PM 84.2 °F 35.6 °F 18% 30.14 in 40.0 mi NW 19.6 mph - N/A   Partly Cloudy
5:48 PM 82.4 °F 37.4 °F 20% 30.14 in 40.0 mi NW 11.5 mph - N/A   Partly Cloudy
6:58 PM 77.0 °F 37.4 °F 24% 30.15 in 10.0 mi NW 8.1 mph - N/A   Clear
8:15 PM 71.6 °F 37.4 °F 29% 30.16 in 10.0 mi Calm Calm - N/A   Clear
8:35 PM 71.6 °F 37.4 °F 29% 30.16 in 10.0 mi Calm Calm - N/A   Scattered Clouds
8:55 PM 69.8 °F 37.4 °F 31% 30.17 in 10.0 mi North 3.5 mph - N/A   Mostly Cloudy
9:15 PM 68.0 °F 37.4 °F 33% 30.17 in 10.0 mi Calm Calm - N/A   Scattered Clouds
9:35 PM 68.0 °F 37.4 °F 33% 30.17 in 10.0 mi NNE 3.5 mph - N/A   Clear
9:55 PM 68.0 °F 37.4 °F 33% 30.17 in 10.0 mi NNE 4.6 mph - N/A   Clear
10:15 PM 64.4 °F 37.4 °F 37% 30.18 in 10.0 mi Calm Calm - N/A   Clear
10:35 PM 64.4 °F 37.4 °F 37% 30.18 in 10.0 mi Calm Calm - N/A   Clear
10:55 PM 64.4 °F 37.4 °F 37% 30.19 in 10.0 mi North 8.1 mph - N/A   Clear
11:15 PM 66.2 °F 37.4 °F 35% 30.19 in 10.0 mi North 3.5 mph - N/A   Clear
11:35 PM 64.4 °F 37.4 °F 37% 30.19 in 10.0 mi Calm Calm - N/A   Clear
11:55 PM 62.6 °F 35.6 °F 37% 30.19 in 10.0 mi Calm Calm - N/A   Clear